Location: Newark
(44.0160°N, 116.9215°W)
Time: 02:50:09
(UTC+00:00)

Envisat - Pass Details

Date: 22 November 2019
Orbit: 764 x 766 km, 98.1° (Epoch: 12 December)

Event Time Altitude Azimuth Distance (km) Brightness Sun altitude
Rises 14:08:45 0° 19° (NNE) 3,241 6.2 -7.9°
Reaches altitude 10° 14:11:11 10° 27° (NNE) 2,310 5.6 -7.4°
Maximum altitude 14:16:00 42° 98° (E) 1,084 4.5 -6.6°
Drops below altitude 10° 14:20:47 10° 169° (SSE) 2,293 6.0 -5.8°
Sets 14:23:12 0° 176° (S) 3,215 6.6 -5.4°
